Theta_e
308 308 308 308 307 307 307 308 309 309 310 311 312 313 314 314 314 319 317 317 318 311 311 312 313 312 314 314 313 315 311 310 312 306 305 302 302 304 303 304 303 301 299 299 299 294 290 308 305 298 304 308 307 307
308 308 307 307 307 306 307 308 309 309 309 310 312 313 314 314 313 315 319 319 316 316 313 314 313 315 318 319 316 313 311 309 312 307 306 306 303 306 302 299 308 300 303 300 301 299 309 309 308 311 310 308 307 307
309 308 307 307 306 306 307 307 308 309 309 310 311 313 314 314 313 315 318 315 317 314 313 313 311 315 317 318 321 310 310 314 313 314 310 308 303 308 301 301 304 307 309 305 303 307 308 310 311 310 309 309 310 309
308 307 307 306 306 306 307 307 308 309 309 310 311 313 313 313 312 312 316 314 314 311 307 310 315 313 315 321 321 319 316 317 316 316 310 308 304 309 303 304 303 305 308 305 305 308 308 308 310 309 310 310 311 310
308 307 306 306 306 306 307 307 308 308 309 310 312 313 313 312 311 312 312 313 316 314 307 310 314 314 317 322 319 320 321 318 315 311 309 306 310 308 307 307 303 306 303 304 300 306 306 307 309 310 309 310 311 308
307 306 306 306 306 306 307 307 307 308 309 310 312 313 312 311 310 316 318 314 315 315 313 307 311 312 315 318 317 317 317 316 315 312 310 311 311 311 302 300 305 308 308 308 307 309 308 309 311 312 311 311 312 312
307 306 306 306 306 306 307 307 308 308 309 310 310 311 311 309 315 314 311 311 310 318 313 307 308 312 312 314 312 314 316 314 315 312 310 310 309 310 304 299 303 305 307 307 308 308 304 306 304 308 310 311 311 312
306 305 305 305 306 306 306 307 308 308 309 309 309 311 308 307 309 313 313 312 314 315 313 306 306 310 313 310 311 310 313 315 312 311 312 308 310 309 300 303 306 306 307 305 306 307 306 307 306 306 308 308 307 308
306 305 305 305 305 306 306 306 307 308 308 309 309 308 314 312 313 313 313 315 315 317 308 306 305 303 311 309 311 312 312 308 310 309 308 309 306 300 304 305 305 307 305 303 305 306 306 304 304 305 304 304 304 306
305 305 305 305 305 306 306 307 307 308 308 308 313 312 310 310 311 313 315 314 313 310 310 304 305 305 308 309 306 309 309 307 304 306 310 305 300 307 308 309 308 308 308 307 304 303 305 304 304 304 304 305 305 305
305 304 304 305 305 306 307 307 307 307 311 312 309 309 311 310 313 310 307 306 306 304 306 305 304 305 307 307 307 306 306 307 302 305 305 302 298 304 308 308 310 311 311 308 308 308 309 309 307 305 304 305 305 305
304 304 304 304 305 306 307 307 307 308 308 308 308 307 310 311 309 305 302 304 303 301 306 305 305 306 308 308 308 306 303 307 300 309 304 297 303 306 309 308 309 309 309 309 309 308 308 309 310 309 307 306 306 306
304 304 304 305 306 306 307 307 307 306 306 310 309 308 307 305 297 299 296 300 301 304 304 304 304 304 308 307 305 305 301 301 308 302 298 301 306 308 308 308 307 308 308 308 306 307 307 308 310 309 308 308 308 307
303 304 304 305 306 306 306 307 308 308 312 307 304 293 299 298 299 300 301 302 304 304 304 304 305 305 304 304 302 300 303 305 298 296 297 303 306 308 308 307 306 306 308 308 307 306 307 307 307 309 309 310 308 307
303 304 305 305 305 306 306 307 308 313 312 305 304 294 298 301 302 302 303 302 302 303 305 305 304 304 302 302 303 302 299 296 298 298 304 308 309 306 305 306 306 308 308 308 308 307 307 307 306 306 308 309 309 308
304 304 304 305 305 305 305 308 312 313 310 306 303 300 301 300 299 301 301 301 302 303 305 305 301 299 299 301 299 296 295 294 300 306 308 308 307 307 307 307 308 308 308 307 307 306 306 305 305 306 307 307 307 307
304 303 304 304 305 305 306 312 314 308 305 303 300 302 300 301 300 301 301 302 302 304 301 301 297 296 302 298 296 301 298 303 306 307 309 309 308 308 309 308 307 307 306 306 306 306 306 306 307 305 303 304 305 306
303 305 304 305 305 308 309 310 308 306 301 301 300 301 303 302 302 303 303 302 303 303 303 300 303 298 296 295 297 303 305 307 308 309 309 309 309 309 306 306 305 305 305 305 305 305 304 303 302 301 301 301 301 301
304 304 304 305 305 307 304 306 306 300 301 302 303 303 303 303 303 303 303 303 303 304 305 303 299 298 299 302 303 303 305 308 305 305 305 307 308 307 305 305 305 306 305 304 303 301 301 302 300 299 299 298 297 298
303 303 304 304 307 306 303 303 306 303 300 302 304 303 302 303 302 304 304 304 305 305 302 300 300 302 304 305 306 306 307 306 306 304 304 306 307 306 305 304 304 305 305 303 302 295 299 298 298 298 298 297 296 295
306 306 305 307 306 306 304 302 302 302 302 302 301 302 302 304 303 302 302 303 304 301 301 303 304 305 306 307 307 306 306 307 307 307 306 305 307 306 305 305 305 305 303 301 299 297 296 296 297 298 297 296 296 296
306 304 306 306 302 303 302 302 302 302 302 301 301 302 301 302 302 302 302 303 303 304 305 305 306 305 305 306 307 308 309 308 307 305 298 301 305 304 304 304 304 302 301 299 298 296 297 297 297 296 296 296 294 295
304 305 304 302 299 296 297 302 300 300 299 299 300 299 299 301 303 303 301 302 304 306 307 306 306 306 308 308 308 308 308 308 307 307 306 306 305 305 303 304 303 301 300 299 299 297 297 293 295 295 296 296 296 295
301 300 297 296 297 294 300 298 299 298 299 298 297 296 299 301 302 300 298 302 304 305 305 306 307 306 307 307 307 307 308 308 307 307 307 306 304 304 303 304 303 302 301 299 299 298 298 297 293 295 295 295 295 295
292 291 294 289 297 296 294 294 295 296 294 295 296 297 299 300 297 296 297 301 304 304 305 305 306 307 306 307 308 307 308 308 307 306 308 305 305 303 303 303 303 303 302 298 297 297 297 296 296 295 295 295 294 294
287 294 293 294 294 295 294 292 293 294 295 295 296 299 299 298 294 293 298 304 304 305 305 305 306 305 305 306 306 307 309 308 308 306 307 306 305 304 302 301 300 300 301 300 298 296 296 295 295 295 294 294 290 293
289 292 295 297 298 297 296 296 297 295 294 294 296 296 296 292 292 298 304 305 306 307 308 309 308 307 307 307 307 308 307 306 307 307 306 306 306 305 304 302 300 301 301 299 299 297 296 295 295 295 294 294 295 295
296 295 293 295 296 297 294 295 294 294 295 298 297 294 293 294 297 303 306 310 309 309 308 308 309 309 309 308 308 308 307 306 305 304 303 303 303 303 303 302 302 290 299 300 299 298 297 296 296 295 294 293 294 295
295 297 297 294 294 295 296 296 296 298 300 300 297 296 298 302 306 307 309 309 310 308 307 306 307 308 307 308 308 307 307 305 303 302 302 302 303 304 304 302 302 301 301 300 288 290 296 295 296 296 295 295 295 296
293 297 295 294 293 293 298 299 299 301 301 303 302 302 303 304 307 308 307 307 306 307 309 309 309 307 306 306 306 307 306 306 305 305 303 303 304 305 302 301 301 301 300 299 298 298 289 293 294 297 295 295 295 294
296 296 294 295 295 298 300 301 302 303 303 303 303 302 303 304 305 307 307 309 308 308 307 306 307 308 306 306 305 305 305 308 306 307 307 307 304 303 302 302 302 302 300 298 298 297 297 296 296 295 295 295 295 293
294 295 294 293 295 300 302 302 301 301 301 300 301 301 301 300 299 305 309 307 306 305 301 303 307 308 310 309 309 309 295 309 308 307 306 304 304 304 304 302 302 301 299 298 297 297 297 296 295 295 295 294 295 295
294 295 295 296 296 297 299 300 298 298 298 297 299 300 300 299 297 304 309 308 308 307 307 308 309 309 310 309 309 308 298 308 304 292 290 291 292 296 303 302 301 300 298 298 298 298 298 297 296 295 295 295 295 295
Wind_Speed
7 9 11 12 14 16 17 19 20 21 21 22 22 23 22 20 15 2 1 3 2 5 5 3 2 3 2 1 2 2 2 2 3 4 3 3 3 4 4 5 4 6 5 4 2 4 4 13 9 8 3 3 5 7
6 8 10 12 14 16 17 18 19 20 20 21 21 22 22 21 17 2 5 4 4 6 5 1 4 3 4 1 4 3 3 2 2 5 3 4 4 3 2 4 5 3 5 4 5 5 5 5 5 4 4 6 3 6
6 9 10 12 14 16 17 18 19 20 20 19 19 19 20 20 18 8 4 5 4 6 6 4 4 4 4 4 2 3 2 4 4 3 4 4 8 0 3 5 2 3 6 3 3 9 10 12 9 9 6 8 7 5
7 9 11 13 14 15 17 18 19 19 19 19 17 15 15 15 15 11 5 3 3 4 5 4 4 4 9 5 4 3 10 6 5 2 5 4 5 2 4 4 5 4 7 5 5 10 4 12 15 13 11 9 11 8
7 9 11 12 14 15 16 18 19 20 19 18 17 15 12 9 5 6 4 5 3 2 5 4 1 8 9 5 15 12 9 6 3 5 6 5 4 5 3 3 7 7 4 4 1 4 2 4 10 13 13 14 14 11
7 9 11 12 14 15 16 18 19 19 19 17 16 15 12 7 1 1 3 3 9 4 4 4 2 5 7 11 15 13 7 6 4 4 4 4 4 2 3 4 7 10 11 6 3 2 6 11 7 15 12 14 14 12
6 9 11 12 14 15 16 18 19 19 19 16 13 12 11 9 4 5 3 5 8 3 4 3 3 4 5 4 4 5 6 5 4 4 4 4 3 3 4 6 5 4 8 9 9 7 7 11 11 14 13 13 13 13
6 9 10 12 14 15 16 18 19 20 19 15 12 8 6 10 7 3 4 6 5 5 3 3 2 2 7 3 3 3 3 3 6 4 2 3 2 2 5 2 4 1 3 7 6 8 6 7 11 13 12 14 14 13
6 9 11 13 15 16 17 19 20 20 18 14 10 1 1 5 3 3 10 6 3 3 4 3 2 3 5 2 1 2 2 4 1 3 3 1 3 5 8 10 8 6 4 2 4 6 7 9 11 13 15 17 16 15
7 9 11 13 15 16 17 19 21 21 16 8 4 4 3 2 9 6 2 3 5 5 5 4 1 2 3 2 2 0 3 3 3 3 1 4 4 5 6 5 3 2 2 4 4 7 7 9 9 11 11 12 12 13
7 9 12 14 15 16 18 19 21 19 5 5 4 1 3 10 0 4 4 4 4 4 4 2 3 2 2 1 2 2 3 1 3 3 1 3 3 4 4 2 3 3 2 3 4 5 6 7 8 9 10 10 10 12
8 10 12 14 14 17 17 16 17 6 3 2 1 1 3 5 4 6 3 2 4 3 3 2 3 3 1 2 0 2 3 1 4 1 3 3 3 3 3 0 4 5 5 6 6 7 9 9 8 8 8 8 9 9
9 11 13 13 13 18 17 14 10 3 4 2 1 5 5 4 10 4 3 2 2 3 4 4 2 2 1 2 3 2 4 5 2 3 3 3 5 4 2 4 4 3 5 5 7 7 9 10 10 10 9 8 9 9
10 12 14 12 14 17 17 13 6 4 1 5 4 7 4 3 3 3 2 2 2 2 3 2 1 3 2 3 2 4 3 1 3 2 3 4 5 2 1 2 3 6 8 8 8 9 11 11 11 12 11 9 8 10
11 12 12 7 18 18 17 12 3 1 3 4 4 4 4 1 1 2 2 2 2 3 1 1 2 2 4 4 3 3 3 4 3 3 3 4 4 2 1 2 5 6 8 8 9 9 11 12 11 11 12 11 11 11
12 8 3 14 18 19 14 5 1 1 4 4 6 3 1 2 3 2 3 2 3 2 1 1 2 3 5 2 3 4 2 3 3 2 3 4 2 3 3 4 6 6 7 8 8 9 9 10 10 10 11 11 13 12
4 2 11 18 19 15 8 2 3 6 4 4 3 2 3 2 1 2 2 3 3 2 2 2 4 4 1 3 3 2 3 3 3 3 3 2 3 2 4 4 5 6 7 8 7 9 9 10 10 11 14 14 15 14
1 5 13 16 12 5 3 5 3 4 5 3 3 2 1 1 2 1 3 2 2 2 1 3 3 3 3 3 3 3 3 3 3 3 2 2 1 2 3 5 6 6 6 6 7 8 9 11 11 9 13 14 13 13
5 7 13 13 5 2 4 4 4 4 3 1 1 1 1 1 0 2 2 2 2 2 4 2 4 2 2 1 3 3 3 2 3 2 2 3 3 3 3 4 5 5 5 6 8 7 7 9 7 8 8 10 9 9
5 5 12 6 5 3 4 3 2 3 2 2 1 2 1 2 3 2 3 3 2 2 4 3 2 2 2 3 2 3 4 4 3 3 2 2 1 2 4 4 4 4 4 5 5 5 8 7 7 8 8 9 9 11
6 6 9 5 3 5 4 2 3 2 2 2 1 1 2 2 2 4 4 3 3 3 3 2 3 3 2 3 3 3 4 3 2 1 2 2 2 1 2 2 3 2 4 4 6 6 5 7 8 8 9 9 10 10
2 6 2 3 4 3 3 2 2 1 1 2 1 1 2 1 2 3 4 3 2 2 2 3 3 4 4 4 3 3 2 4 3 2 2 2 2 2 2 2 3 4 3 4 5 6 6 7 8 9 9 9 8 9
5 3 2 5 4 5 1 1 1 3 2 2 0 1 1 1 2 3 2 1 1 1 1 2 3 3 3 3 3 4 5 5 3 3 3 3 3 2 3 3 3 4 4 4 4 5 6 7 7 9 9 9 10 9
2 4 4 3 3 2 1 3 2 2 1 1 1 1 1 1 2 1 1 1 1 1 3 4 4 4 2 3 4 5 5 4 4 3 3 4 4 3 3 3 3 3 4 5 4 5 6 7 7 8 9 10 11 11
4 6 4 4 2 2 3 2 2 2 2 0 1 0 1 1 1 0 1 2 2 3 3 3 4 4 4 3 3 4 4 5 5 4 3 5 4 3 4 3 3 3 3 4 5 6 6 6 6 9 10 11 13 13
5 3 3 1 1 1 1 2 1 2 2 2 1 1 0 0 0 2 2 2 2 4 5 6 6 5 4 4 4 4 4 5 4 4 4 4 5 5 5 4 5 3 2 3 4 6 7 7 8 12 12 13 9 13
2 1 2 1 1 1 2 1 1 1 2 2 2 2 1 1 2 2 2 3 3 4 4 5 5 5 4 3 3 3 3 4 5 3 2 3 3 4 4 5 5 2 2 4 5 6 7 8 9 10 11 11 11 11
0 1 1 1 1 0 2 2 2 3 2 2 3 3 2 3 3 2 3 1 4 1 3 4 5 5 4 3 3 3 3 3 2 2 3 3 4 4 5 5 5 5 4 5 6 5 5 6 8 10 11 11 11 10
1 1 2 1 1 2 3 3 2 2 2 3 3 2 3 3 2 2 2 2 2 3 4 5 6 5 4 4 4 4 4 5 6 8 10 8 6 5 6 6 5 4 5 5 6 5 6 7 9 9 10 8 9 9
1 3 2 2 3 4 2 4 1 1 2 1 1 1 2 3 3 2 3 3 4 6 8 7 5 5 7 7 7 7 7 7 8 9 8 9 6 3 5 6 6 6 5 5 5 5 4 6 6 6 6 7 7 8
1 2 2 2 3 2 2 1 1 1 2 2 2 3 3 3 3 4 6 6 7 6 6 8 8 8 8 9 8 8 9 7 11 14 12 8 6 6 7 7 6 5 5 5 5 5 7 7 7 8 9 10 11 9
3 5 3 3 3 1 1 2 1 2 2 2 3 3 2 2 4 3 3 4 5 7 10 9 9 9 10 10 9 8 10 8 5 8 12 9 9 9 7 6 5 6 6 6 7 8 9 10 8 9 9 12 12 12
2 2 2 2 2 3 2 2 2 3 3 3 4 4 4 3 5 3 2 5 6 6 7 8 9 9 9 9 9 8 8 8 9 8 8 8 8 7 7 6 7 7 9 9 9 9 11 12 11 12 13 13 14 13
Wind_Direction
37 23 10 357 354 354 353 347 348 350 350 349 349 351 354 358 4 31 81 356 90 89 55 31 61 106 141 53 115 71 196 76 91 78 91 91 73 57 81 47 3 20 359 31 36 65 57 3 29 55 12 332 316 333
35 22 9 358 355 353 349 346 346 349 349 347 350 352 355 357 7 21 49 9 354 76 99 32 65 35 5 298 129 42 77 82 95 106 103 128 101 83 13 67 22 40 12 23 14 59 28 17 21 357 335 314 352 312
32 20 7 358 353 351 346 344 344 346 347 346 350 352 353 360 11 37 70 353 48 83 81 55 10 0 22 0 313 116 134 123 84 9 110 104 86 2 69 41 342 49 22 39 176 40 3 22 8 348 305 294 330 303
29 18 6 354 351 346 344 342 341 342 344 343 346 350 352 1 3 33 60 347 56 91 88 46 331 29 337 16 65 50 116 88 102 81 74 76 104 25 75 89 57 354 319 0 64 12 342 23 17 357 345 334 329 318
29 15 360 351 351 343 342 341 339 341 341 342 341 342 347 4 13 68 68 39 32 97 125 115 163 19 25 66 73 72 83 96 66 82 81 78 84 109 81 86 51 3 346 22 106 292 279 330 1 356 358 356 350 336
27 7 354 350 347 340 342 339 337 338 338 338 338 338 342 344 151 187 51 72 17 9 109 94 69 21 33 57 63 55 52 56 65 68 74 81 46 51 89 87 51 33 45 25 24 350 26 359 348 355 346 350 347 353
21 0 353 350 342 338 339 335 333 336 334 332 335 336 348 18 44 57 72 318 335 304 72 76 81 35 355 29 49 52 45 60 51 85 52 69 68 44 86 82 86 49 50 43 32 19 9 10 352 351 351 347 342 345
11 356 352 348 338 335 335 332 332 336 333 329 329 338 47 77 111 42 10 0 324 84 55 88 56 88 8 47 80 356 70 56 35 87 94 74 100 54 84 130 125 60 72 42 42 56 32 6 9 8 3 358 354 355
6 354 350 345 336 334 334 333 334 336 332 325 321 299 77 35 35 328 327 315 25 48 95 66 79 83 357 57 62 116 22 78 9 76 75 250 34 47 113 102 82 64 65 15 336 41 19 10 5 3 1 358 357 357
4 353 347 339 334 334 334 335 336 336 326 324 27 33 22 0 314 297 359 32 23 7 33 72 261 63 338 17 70 31 30 83 87 57 164 66 74 93 136 115 117 74 36 355 354 357 344 346 346 354 2 358 355 350
359 349 344 336 335 335 337 338 337 334 12 33 29 26 309 313 37 35 51 39 345 56 24 32 2 33 41 31 92 5 104 104 101 85 46 88 107 157 161 12 354 348 344 351 308 305 305 297 318 336 347 354 353 351
351 345 336 333 335 334 336 345 343 27 46 50 14 285 282 22 37 63 32 5 34 51 25 6 5 358 19 319 125 53 84 111 86 75 82 79 114 141 257 343 9 12 338 329 328 318 319 305 308 310 322 333 338 338
345 337 330 330 330 336 338 346 3 123 138 178 55 48 26 341 45 40 29 47 63 5 13 358 50 338 203 35 76 56 66 61 162 58 71 73 153 212 332 10 9 340 343 332 342 347 344 334 321 314 314 317 320 323
338 332 326 325 331 333 339 342 3 136 324 57 46 26 43 30 52 23 28 28 15 316 354 355 5 21 1 54 7 75 65 178 83 74 75 141 179 166 28 348 323 355 351 339 332 335 334 331 326 324 332 311 302 303
329 320 321 328 334 333 334 332 346 343 60 64 51 55 55 32 37 350 309 288 17 317 308 163 99 2 32 67 36 106 82 73 41 84 116 131 127 131 90 4 349 343 342 333 331 324 326 332 330 325 335 337 325 317
318 320 306 324 331 330 328 326 25 70 61 64 49 93 83 65 35 20 352 348 14 327 233 358 72 71 52 27 57 46 78 69 108 96 103 139 128 73 1 343 338 334 336 338 348 345 342 353 347 338 338 352 347 339
338 5 318 326 328 321 337 41 27 49 61 52 67 46 64 85 17 328 321 346 340 287 55 29 55 47 122 65 75 13 83 96 94 111 119 111 62 23 356 358 9 14 8 4 4 10 2 353 348 350 349 345 339 336
35 301 319 330 339 336 27 24 70 67 68 39 78 39 46 18 324 356 346 336 307 85 60 70 118 64 60 102 110 110 103 92 77 78 73 63 92 66 44 29 15 14 12 12 7 1 359 354 348 348 340 340 336 339
274 305 315 328 360 33 39 35 18 86 63 50 84 61 353 5 351 310 322 13 40 63 113 82 74 68 89 97 106 114 127 134 121 100 65 75 107 110 43 14 17 22 17 10 1 353 344 349 351 346 340 341 341 342
315 305 343 346 352 58 58 36 2 81 93 69 59 45 17 1 332 335 16 24 37 58 50 52 70 100 104 122 125 110 119 134 142 145 128 141 125 36 32 1 359 340 330 345 346 350 343 343 349 346 343 336 336 343
352 348 344 359 40 51 74 7 62 50 105 81 36 21 31 348 18 11 9 340 61 40 83 80 108 107 107 109 120 132 148 175 182 193 159 174 176 307 330 357 327 307 321 337 338 342 336 347 337 338 336 340 344 338
328 326 343 3 56 42 77 19 55 76 61 80 87 24 55 40 7 15 316 35 62 76 106 136 146 147 152 172 171 193 165 171 153 138 124 145 232 260 315 337 305 309 321 331 333 338 338 338 342 336 338 340 332 336
319 1 38 17 70 50 46 310 65 15 79 67 108 96 78 67 18 307 61 2 39 92 136 137 145 158 171 147 174 177 181 186 205 215 204 230 245 259 272 283 260 289 314 335 327 325 332 330 335 334 336 329 333 336
338 42 35 36 47 79 345 44 42 68 81 57 50 74 85 30 338 36 140 248 111 149 182 168 159 142 144 190 217 213 200 208 227 226 224 237 252 248 255 291 266 276 292 308 311 324 330 329 325 340 342 341 340 337
54 349 40 356 26 55 64 45 38 72 90 98 150 192 83 324 87 70 285 273 210 194 183 175 196 219 219 220 246 236 197 212 219 244 224 221 248 249 250 251 264 278 288 282 316 326 320 323 330 336 333 336 339 336
67 346 51 12 50 60 95 107 112 126 150 157 128 62 298 77 269 242 234 226 223 203 196 201 198 190 215 228 255 241 220 195 207 240 261 223 230 250 277 289 306 325 214 269 295 302 310 320 328 328 329 336 329 330
73 36 45 23 24 123 105 82 109 211 184 176 155 169 189 241 238 244 261 215 222 213 206 194 191 196 214 233 233 224 192 188 216 265 318 273 238 236 247 267 287 291 238 265 280 288 301 312 320 325 328 331 331 334
113 173 160 129 150 320 151 185 218 221 201 162 155 188 214 210 229 224 232 243 225 239 210 208 215 224 231 238 255 234 194 190 187 219 244 237 228 230 229 235 236 201 255 256 265 273 283 303 311 316 321 322 322 333
226 157 185 181 235 246 239 218 234 230 165 172 182 207 231 219 252 238 241 241 224 220 218 222 223 212 232 240 240 228 209 191 203 232 248 257 251 238 207 218 223 225 231 254 204 242 275 284 295 303 306 309 315 315
242 182 197 197 214 228 249 190 228 110 194 216 249 260 245 244 247 238 238 222 218 225 230 234 241 207 229 230 243 233 217 214 218 233 247 255 257 212 190 200 211 219 224 236 255 272 244 262 266 273 287 302 305 317
152 181 231 223 254 248 253 282 221 223 212 225 206 238 256 298 286 237 234 238 238 240 235 240 238 228 233 236 234 246 259 218 219 226 233 241 236 215 215 209 210 212 221 233 247 260 270 275 282 293 299 304 306 304
196 208 203 219 251 246 242 223 217 232 216 232 240 208 241 235 255 261 236 206 233 241 240 240 246 246 231 234 245 249 235 252 220 219 226 222 228 225 219 212 206 210 222 231 239 248 256 263 274 281 289 292 294 299
220 200 207 263 272 261 204 213 225 251 225 237 242 235 233 242 248 264 266 218 237 263 267 254 244 252 265 253 242 244 236 241 237 214 209 214 218 213 210 212 210 215 225 235 244 250 257 263 268 274 280 281 283 287